COSMOS 1275 DEB, 39949

Orbit data source: Space-Track

COSMOS 1275 DEB, 39949 is space debris in LEO originally from a launch on Thu, 04 Jun 1981 UTC launched from the Plesetsk Missile And Space Complex (PKMTR). Debris objects in space refer to the collection of defunct objects orbiting the Earth. Examples of debris include non-operational satellites, rocket bodies, and fragments generated from explosions, collisions, or faulty payload assembly.

Loading next visibility...
Identifier
39949, 1981-053NK
Orbit
LEO
Country
Flag of CISCIS
Related business
Manufacturer
Unknown
Mission
Spacecraft
Bus & Motor
Unknown
Mass
Unknown
Launch date (UTC)
1981-06-04 (45 years ago)
Launch vehicle
Unknown
Launch site
Plesetsk Missile And Space Complex (PKMTR)
Object type
Payload
Rocket body
Debris
Shape & HBR
Unknown shape, 0.1 m
Radar Cross Section
Small (<0.1 m²)

Expand to show TLE details & history
Last TLE update: 6 months ago

TLE from 6 months ago
0 COSMOS 1275 DEB
1 39949U 81053NK  25251.04030016  .00001703  00000-0  12777-2 0  9997
2 39949  82.8303 172.4144 0031036   4.0175 356.1234 13.93753154997328
Epoch: 2025-09-08T00:58Z
TLE epoch observation values (Epoch: 2025-09-08T00:58:01.933Z)
Latitude
-0.00007°
Longitude
170.5552°
Altitude
895.842 km
Speed
7.416 km/s
True Right ascension
11h 29m 39s
True Declination
0° 00' 00"
Sunlit
Object was in daylight at epoch
Visualization orbit readout
Latitude
Unknown
Longitude
Unknown
Altitude
Unknown
Speed
Unknown
Apparent Right ascension
Unknown
Apparent Declination
Unknown
Sunlit
N/A
Visualization observer readout
Local Sidereal Time
09:14:48
Azimuth
Unknown
Elevation
Unknown
Doppler factor
Unknown
Orbital elements
Apogee altitude
935.262 km
Perigee altitude
890.007 km
Semi-major axis
7,290.772 km
Eccentricity
0.0031
Inclination
82.8303°
RAAN
172.4144°
Arg. of periapsis
4.0175°
True anomaly
356.09926°
Mean anomaly
356.1234°
Eccentric anomaly
356.11134°
Mean motion
3.48645 °/min
Orbital period
103.26 mins
BSTAR
0.0012777
Loading maneuver chart data...
Computing Atmospheric mass density...
Loading historical data...
Loading historical data...
Loading historical data...
Loading historical data...
Loading historical data...
Loading historical data...
Loading historical data...

Documentation

Showing up to 5 results
|